Shoreham, United Kingdom

8:04 AM GMT on February 12, 2016 (GMT +0000)
Shoreham

Weather History for EGKA - November, 2012

Change the Weather History Date:

Wednesday, November 21, 2012

  Actual Average Record
Temperature  
Mean Temperature 46 °F -  
Max Temperature 53 °F 46 °F 57 °F (2011)
Min Temperature 39 °F 40 °F 32 °F (1996)
Degree Days  
Heating Degree Days 19    
Moisture  
Dew Point 45 °F    
Average Humidity 85    
Maximum Humidity 94    
Minimum Humidity 75    
Precipitation  
Precipitation 0.16 in - - ()
Sea Level Pressure  
Sea Level Pressure 29.74 in    
Wind  
Wind Speed 17 mph ()    
Max Wind Speed 34 mph    
Max Gust Speed 51 mph    
Visibility 5.3 miles    
Events Rain    
Averages and records for this station are not official NWS values.
T = Trace of Precipitation, MM = Missing Value Source: Averaged Metar Reports

Daily Weather History Graph

Daily Weather History Graph

Search for Another Location

Airport or City:

Trip Planner

Search our weather history database for the weather conditions in past years. The results will help you decide how hot, cold, wet, or windy it might be!

Date:

Astronomy

Nov. 21, 2012 Rise Set
Actual Time 7:27 AM GMT 4:06 PM GMT
Civil Twilight 6:49 AM GMT 4:43 PM GMT
Nautical Twilight 6:09 AM GMT 5:24 PM GMT
Astronomical Twilight 5:30 AM GMT 6:03 PM GMT
Moon 12:54 PM GMT (11/21) No Moon Set
Length of Visible Light 9h 53m
Length of Day
8h 39m
First Quarter, 59% of the Moon is Illuminated
Nov 21
First Quarter
Nov 28
Full
Dec 6
Last Quarter
Dec 13
New
Dec 20
First Quarter

Hourly Weather History & Observations

Time (GMT) Temp. Windchill Dew Point Humidity Pressure Visibility Wind Dir Wind Speed Gust Speed Precip Events Conditions
2:50 AM 53 °F - 49 °F 80% 29.74 in - SE 12.7 mph - -  
5:50 AM 51 °F - 48 °F 87% 29.69 in - SE 13.8 mph - -  
7:50 AM 51.8 °F - 46.4 °F 82% 29.65 in 3.7 mi SSE 17.3 mph - N/A Rain Rain
8:20 AM 51.8 °F - 48.2 °F 88% 29.65 in 3.1 mi SSE 16.1 mph - N/A Rain Rain
8:50 AM 52 °F - 48 °F 82% 29.66 in - South 18.4 mph - -  
8:50 AM 51.8 °F - 48.2 °F 88% 29.65 in 3.1 mi SSE 18.4 mph - N/A Rain Rain
9:20 AM 51.8 °F - 50.0 °F 94% 29.65 in - South 18.4 mph - N/A Rain Rain
9:50 AM 51.8 °F - 50.0 °F 94% 29.62 in 3.7 mi South 19.6 mph - N/A Rain Light Rain
10:20 AM 53.6 °F - 50.0 °F 88% 29.62 in 5.0 mi South 20.7 mph - N/A Rain Light Rain
10:50 AM 53.6 °F - 50.0 °F 88% 29.59 in 5.6 mi South 23.0 mph - N/A   Mostly Cloudy
11:20 AM 51.8 °F - 48.2 °F 88% 29.59 in 5.0 mi SSW 23.0 mph 34.5 mph N/A   Mostly Cloudy
11:50 AM 51 °F - 47 °F 82% 29.58 in - SSW 27.6 mph - -  
11:50 AM 50.0 °F - 46.4 °F 87% 29.56 in 5.0 mi SW 25.3 mph 39.1 mph N/A   Mostly Cloudy
12:20 PM 50.0 °F - 46.4 °F 87% 29.53 in 5.0 mi SW 26.5 mph 39.1 mph N/A   Mostly Cloudy
12:50 PM 50.0 °F - 44.6 °F 82% 29.59 in 6.2 mi West 34.5 mph 50.6 mph N/A   Mostly Cloudy
1:20 PM 48.2 °F - 42.8 °F 82% 29.65 in 6.2 mi West 32.2 mph 43.7 mph N/A   Mostly Cloudy
1:50 PM 48.2 °F - 44.6 °F 87% 29.71 in 6.2 mi West 23.0 mph 48.3 mph N/A Rain Rain
2:20 PM 48.2 °F - 44.6 °F 87% 29.74 in 6.2 mi West 27.6 mph 40.3 mph N/A Rain Rain Showers
2:50 PM 48 °F - 43 °F 76% 29.78 in - West 24.2 mph - -  
2:50 PM 48.2 °F - 42.8 °F 82% 29.77 in 6.2 mi West 24.2 mph 36.8 mph N/A   Scattered Clouds
3:20 PM 48.2 °F - 42.8 °F 82% 29.80 in 6.2 mi West 20.7 mph 32.2 mph N/A   Scattered Clouds
3:50 PM 48.2 °F - 42.8 °F 82% 29.83 in 6.2 mi West 17.3 mph 28.8 mph N/A   Scattered Clouds
4:20 PM 48.2 °F - 41.0 °F 76% 29.86 in 6.2 mi West 18.4 mph - N/A   Scattered Clouds
4:50 PM 48.2 °F - 42.8 °F 82% 29.89 in 6.2 mi West 15.0 mph - N/A   Scattered Clouds
5:20 PM 46.4 °F 41.1 °F 42.8 °F 87% 29.92 in 6.2 mi West 11.5 mph - N/A   Partly Cloudy
5:50 PM 46 °F - 42 °F 80% 29.95 in - West 9.2 mph - -  
5:50 PM 44.6 °F 39.7 °F 41.0 °F 87% 29.95 in - West 9.2 mph - N/A   Clear
6:20 PM 44.6 °F 40.7 °F 41.0 °F 87% 29.95 in - West 6.9 mph - N/A   Clear
8:50 PM 39 °F - 37 °F 92% 30.01 in - SSE 1.2 mph - -  
11:50 PM 50 °F - 44 °F 75% 30.03 in - SW 13.8 mph - -